Simultaneous Nadir Overpasses (SNOs) Predictions

Prediction of SNOs between METOP-C and LANDSAT-8 Satellite Orbit:

Table of predicted SNOs for the next 14.0 days since TLE Epoch: 12/30/2023
Index Date (METOP-C) Time (METOP-C) Lat,Lon (METOP-C) SZA (METOP-C ) Date (LANDSAT-8) Time (LANDSAT-8) Lat,Lon (LANDSAT-8) SZA (LANDSAT-8 ) Distance(km) Time Diff (sec)
1 12/31/2023 05:26:48 81.11, 137.53 106.02 12/31/2023 05:27:58 81.11, 137.55 106.05 0.59 70
2 12/31/2023 06:17:25 -81.15, -54.00 73.85 12/31/2023 06:17:23 -81.15, -54.14 73.86 2.32 2
3 01/03/2024 01:01:10 81.12,-155.66 105.81 01/03/2024 01:02:10 81.12,-155.81 105.82 2.66 60
4 01/03/2024 01:51:49 -81.14, 12.06 74.15 01/03/2024 01:51:36 -81.14, 12.16 74.14 1.67 13
5 01/05/2024 20:35:32 81.12, -89.30 105.49 01/05/2024 20:36:21 81.12, -89.38 105.50 1.34 49
6 01/05/2024 21:26:11 -81.13, 78.42 74.47 01/05/2024 21:25:47 -81.14, 78.61 74.46 3.22 24
7 01/08/2024 16:09:54 81.13, -22.66 105.14 01/08/2024 16:10:32 81.13, -22.79 105.14 2.21 38
8 01/08/2024 17:00:33 -81.14, 145.09 74.82 01/08/2024 16:59:58 -81.15, 145.22 74.82 2.42 35
9 01/11/2024 11:44:17 81.12, 43.53 104.68 01/11/2024 11:44:43 81.12, 43.60 104.70 1.31 26



Historial Predications of SNOs between METOP-C and LANDSAT-8
